This demonstration page uses our WeatherBlox Daily Observations layout. Learn more.

Left ArrowRight Arrow

Hourly Observations for July 29, 2022

Temp ( °F °C ) Dew Point ( °F °C ) Humidity (%) Winds ( mph kmh ) Pressure ( in mb ) Visibility ( mi km ) Precip ( " mm )
12:52 am 00:52 Partly Cloudy 62 16.7 58 14.4 86 86 Calm 30.07 1018 10 16 0.00 0.00
1:52 am 01:52 Partly Cloudy 61 16.1 58 14.4 90 90 Calm 30.07 1018 10 16 0.00 0.00
2:52 am 02:52 Partly Cloudy 60 15.6 57 13.9 90 90 Calm 30.08 1019 10 16 0.00 0.00
3:52 am 03:52 Partly Cloudy 59 15 57 13.9 93 93 Calm 30.08 1019 10 16 0.00 0.00
4:52 am 04:52 Partly Cloudy 58 14.4 57 13.9 97 97 Calm 30.09 1019 10 16 0.00 0.00
5:52 am 05:52 Partly Cloudy 57 13.9 56 13.3 96 96 NNW 3 6 30.10 1019 10 16 0.00 0.00
6:52 am 06:52 Mostly Cloudy 56 13.3 54 12.2 93 93 NW 3 6 30.11 1020 10 16 0.00 0.00
7:52 am 07:52 Partly Cloudy 62 16.7 57 13.9 84 84 NNW 3 6 30.12 1020 10 16 0.00 0.00
8:52 am 08:52 Mostly Cloudy 68 20 59 15 73 73 N 3 6 30.14 1021 10 16 0.00 0.00
9:52 am 09:52 Mostly Cloudy 72 22.2 57 13.9 59 59 N 6 9 30.14 1021 10 16 0.00 0.00
10:52 am 10:52 Partly Cloudy 77 25 56 13.3 48 48 N 6 9 30.15 1021 10 16 0.00 0.00
11:52 am 11:52 Partly Cloudy 80 26.7 56 13.3 44 44 VRB 3 6 30.15 1021 10 16 0.00 0.00
12:52 pm 12:52 Partly Cloudy 79 26.1 55 12.8 44 44 Calm 30.15 1021 10 16 0.00 0.00
1:52 pm 13:52 Mostly Cloudy 82 27.8 56 13.3 41 41 VRB 5 7 30.14 1021 10 16 0.00 0.00
2:52 pm 14:52 Partly Cloudy 83 28.3 55 12.8 38 38 VRB 7 11 30.12 1020 10 16 0.00 0.00
3:52 pm 15:52 Mostly Cloudy 83 28.3 54 12.2 37 37 VRB 3 6 30.11 1020 10 16 0.00 0.00
4:52 pm 16:52 Mostly Cloudy 83 28.3 54 12.2 37 37 VRB 5 7 30.09 1019 10 16 0.00 0.00
5:52 pm 17:52 Mostly Cloudy 83 28.3 55 12.8 38 38 NNW 5 7 30.08 1019 10 16 0.00 0.00
6:52 pm 18:52 Mostly Cloudy 82 27.8 55 12.8 40 40 N 6 9 30.09 1019 10 16 0.00 0.00
7:52 pm 19:52 Mostly Cloudy 80 26.7 54 12.2 41 41 E 3 6 30.08 1019 10 16 0.00 0.00
8:52 pm 20:52 Partly Cloudy 78 25.6 59 15 52 52 S 10 17 30.09 1019 10 16 0.00 0.00
9:52 pm 21:52 Partly Cloudy 74 23.3 60 15.6 62 62 SSE 9 15 30.11 1020 10 16 0.00 0.00
10:52 pm 22:52 Partly Cloudy 71 21.7 61 16.1 71 71 SE 8 13 30.11 1020 10 16 0.00 0.00
11:52 pm 23:52 Mostly Clear 69 20.6 61 16.1 76 76 SSE 7 11 30.13 1020 10 16 0.00 0.00

Powered by AerisWeather